When you browse on this site, cookies collect data to enhance your experience and personalize the content and advertising you see.
Visit our Privacy Policy to learn more. By continuing to use the site, you agree to this use of cookies and data.
EN

Hourly Weather Kalinino

Today, 18 September, Friday

Time Temperature Precipitation Wind Pressure Humidity
00:00 +13°C° 0 mm 4 mps 755 mmHg 49%
01:00 +13°C° 0 mm 5 mps 754 mmHg 48%
02:00 +12°C° 0 mm 5 mps 754 mmHg 48%
03:00 +12°C° 0 mm 5 mps 753 mmHg 45%
04:00 +12°C° 0 mm 5 mps 753 mmHg 45%
05:00 +11°C° 0 mm 6 mps 752 mmHg 44%
06:00 +11°C° 0 mm 6 mps 752 mmHg 44%
07:00 +14°C° 0 mm 7 mps 752 mmHg 40%
08:00 +15°C° 0 mm 7 mps 752 mmHg 36%
09:00 +17°C° 0 mm 8 mps 751 mmHg 33%
10:00 +18°C° 0 mm 8 mps 751 mmHg 31%
11:00 +19°C° 0 mm 9 mps 751 mmHg 29%
12:00 +22°C° 0 mm 9 mps 750 mmHg 27%
13:00 +22°C° 0 mm 9 mps 750 mmHg 26%
14:00 +22°C° 0 mm 9 mps 749 mmHg 26%
15:00 +23°C° 0 mm 9 mps 748 mmHg 26%
16:00 +22°C° 0 mm 8 mps 748 mmHg 27%
17:00 +21°C° 0 mm 7 mps 748 mmHg 29%
18:00 +20°C° 0 mm 6 mps 747 mmHg 30%
19:00 +19°C° 0 mm 6 mps 747 mmHg 34%
20:00 +19°C° 0 mm 6 mps 746 mmHg 38%
21:00 +17°C° 0 mm 7 mps 746 mmHg 41%
22:00 +16°C° 1.6 mm 6 mps 746 mmHg 57%
23:00 +14°C° 1.6 mm 6 mps 745 mmHg 73%

Tomorrow, 19 September, Saturday

Time Temperature Precipitation Wind Pressure Humidity
00:00 +12°C° 1.6 mm 5 mps 745 mmHg 89%
01:00 +12°C° 0.3 mm 4 mps 745 mmHg 87%
02:00 +12°C° 0.3 mm 4 mps 745 mmHg 85%
03:00 +12°C° 0.3 mm 3 mps 744 mmHg 83%
04:00 +11°C° 0 mm 3 mps 744 mmHg 82%
05:00 +11°C° 0 mm 4 mps 744 mmHg 82%
06:00 +10°C° 0 mm 4 mps 744 mmHg 81%
07:00 +10°C° 0 mm 5 mps 745 mmHg 74%
08:00 +11°C° 0 mm 6 mps 745 mmHg 67%
09:00 +13°C° 0 mm 6 mps 745 mmHg 60%
10:00 +14°C° 0 mm 7 mps 745 mmHg 56%
11:00 +15°C° 0 mm 7 mps 745 mmHg 52%
12:00 +16°C° 0 mm 7 mps 744 mmHg 47%
13:00 +16°C° 0.1 mm 8 mps 744 mmHg 46%
14:00 +16°C° 0.1 mm 8 mps 744 mmHg 45%
15:00 +16°C° 0.1 mm 8 mps 744 mmHg 44%
16:00 +15°C° 0.1 mm 9 mps 745 mmHg 51%
17:00 +13°C° 0.1 mm 9 mps 746 mmHg 59%
18:00 +11°C° 0.1 mm 9 mps 746 mmHg 66%
19:00 +11°C° 0 mm 9 mps 746 mmHg 65%
20:00 +10°C° 0 mm 8 mps 747 mmHg 64%
21:00 +10°C° 0 mm 8 mps 747 mmHg 63%
22:00 +10°C° 0 mm 7 mps 747 mmHg 66%
23:00 +9°C° 0 mm 7 mps 747 mmHg 69%

Day after tomorrow, 20 September, Sunday

Time Temperature Precipitation Wind Pressure Humidity
00:00 +9°C° 0 mm 6 mps 748 mmHg 72%
01:00 +8°C° 0 mm 6 mps 748 mmHg 75%
02:00 +8°C° 0 mm 5 mps 748 mmHg 78%
03:00 +8°C° 0 mm 5 mps 748 mmHg 81%
04:00 +8°C° 0 mm 5 mps 748 mmHg 81%
05:00 +7°C° 0 mm 5 mps 748 mmHg 81%
06:00 +7°C° 0 mm 5 mps 748 mmHg 82%
07:00 +9°C° 0 mm 6 mps 748 mmHg 73%
08:00 +10°C° 0 mm 6 mps 748 mmHg 64%
09:00 +12°C° 0 mm 7 mps 748 mmHg 54%
10:00 +12°C° 0.3 mm 7 mps 749 mmHg 52%
11:00 +13°C° 0.3 mm 8 mps 749 mmHg 50%
12:00 +13°C° 0.3 mm 9 mps 749 mmHg 48%
13:00 +13°C° 0.1 mm 9 mps 749 mmHg 48%
14:00 +12°C° 0.1 mm 9 mps 750 mmHg 47%
15:00 +12°C° 0.1 mm 9 mps 750 mmHg 47%
16:00 +11°C° 0 mm 9 mps 751 mmHg 51%
17:00 +10°C° 0 mm 8 mps 751 mmHg 54%
18:00 +7°C° 0 mm 8 mps 752 mmHg 57%
19:00 +8°C° 0 mm 7 mps 752 mmHg 57%
20:00 +8°C° 0 mm 6 mps 753 mmHg 56%
21:00 +8°C° 0 mm 5 mps 754 mmHg 55%
22:00 +7°C° 0 mm 5 mps 754 mmHg 58%
23:00 +7°C° 0 mm 5 mps 754 mmHg 60%

21 September, Monday

Time Temperature Precipitation Wind Pressure Humidity
00:00 +6°C° 0 mm 4 mps 755 mmHg 63%
01:00 +6°C° 0 mm 4 mps 755 mmHg 64%
02:00 +6°C° 0 mm 4 mps 755 mmHg 65%
03:00 +6°C° 0 mm 4 mps 756 mmHg 66%
04:00 +5°C° 0 mm 4 mps 756 mmHg 68%
05:00 +5°C° 0 mm 4 mps 756 mmHg 70%
06:00 +5°C° 0 mm 3 mps 756 mmHg 71%
07:00 +6°C° 0 mm 4 mps 756 mmHg 65%
08:00 +8°C° 0 mm 5 mps 756 mmHg 59%
09:00 +10°C° 0 mm 6 mps 756 mmHg 53%
10:00 +11°C° 0 mm 6 mps 756 mmHg 49%
11:00 +13°C° 0 mm 6 mps 756 mmHg 45%
12:00 +14°C° 0 mm 6 mps 756 mmHg 41%
13:00 +15°C° 0 mm 6 mps 755 mmHg 41%
14:00 +15°C° 0 mm 7 mps 755 mmHg 40%
15:00 +16°C° 0 mm 7 mps 755 mmHg 40%
16:00 +14°C° 0 mm 6 mps 755 mmHg 44%
17:00 +13°C° 0 mm 5 mps 754 mmHg 48%
18:00 +12°C° 0 mm 4 mps 754 mmHg 52%
19:00 +12°C° 0 mm 4 mps 754 mmHg 55%
20:00 +11°C° 0 mm 4 mps 755 mmHg 58%
21:00 +11°C° 0 mm 4 mps 755 mmHg 61%
22:00 +10°C° 0 mm 4 mps 755 mmHg 62%
23:00 +10°C° 0 mm 4 mps 755 mmHg 63%

22 September, Tuesday

Time Temperature Precipitation Wind Pressure Humidity
00:00 +10°C° 0 mm 4 mps 755 mmHg 65%
01:00 +10°C° 0 mm 4 mps 754 mmHg 66%
02:00 +10°C° 0 mm 4 mps 754 mmHg 68%
03:00 +10°C° 0 mm 4 mps 754 mmHg 70%
04:00 +8°C° 0 mm 4 mps 755 mmHg 73%
05:00 +8°C° 0 mm 4 mps 755 mmHg 75%
06:00 +9°C° 0 mm 3 mps 755 mmHg 78%
07:00 +10°C° 0 mm 4 mps 756 mmHg 73%
08:00 +12°C° 0 mm 4 mps 756 mmHg 69%
09:00 +13°C° 0 mm 4 mps 756 mmHg 64%
10:00 +14°C° 0 mm 4 mps 757 mmHg 58%
11:00 +17°C° 0 mm 4 mps 757 mmHg 51%
12:00 +18°C° 0 mm 4 mps 757 mmHg 45%
13:00 +18°C° 0 mm 4 mps 757 mmHg 41%
14:00 +19°C° 0 mm 4 mps 757 mmHg 37%
15:00 +19°C° 0 mm 3 mps 757 mmHg 33%
16:00 +18°C° 0 mm 3 mps 758 mmHg 36%
17:00 +16°C° 0 mm 2 mps 758 mmHg 39%
18:00 +15°C° 0 mm 1 mps 758 mmHg 42%
19:00 +14°C° 0 mm 1 mps 758 mmHg 43%
20:00 +14°C° 0 mm 1 mps 759 mmHg 44%
21:00 +13°C° 0 mm 1 mps 759 mmHg 45%
22:00 +13°C° 0 mm 1 mps 759 mmHg 46%
23:00 +12°C° 0 mm 1 mps 760 mmHg 46%

23 September, Wednesday

Time Temperature Precipitation Wind Pressure Humidity
00:00 +12°C° 0 mm 1 mps 760 mmHg 47%
01:00 +11°C° 0 mm 1 mps 760 mmHg 48%
02:00 +10°C° 0 mm 2 mps 760 mmHg 49%
03:00 +10°C° 0 mm 2 mps 760 mmHg 50%
04:00 +10°C° 0 mm 2 mps 760 mmHg 52%
05:00 +9°C° 0 mm 2 mps 761 mmHg 53%
06:00 +9°C° 0 mm 2 mps 761 mmHg 54%
07:00 +12°C° 0 mm 2 mps 761 mmHg 50%
08:00 +14°C° 0 mm 2 mps 761 mmHg 45%
09:00 +16°C° 0 mm 3 mps 761 mmHg 41%
10:00 +18°C° 0 mm 3 mps 761 mmHg 38%
11:00 +19°C° 0 mm 3 mps 761 mmHg 36%
12:00 +20°C° 0 mm 3 mps 761 mmHg 33%
13:00 +20°C° 0 mm 3 mps 761 mmHg 32%
14:00 +21°C° 0 mm 3 mps 761 mmHg 31%
15:00 +21°C° 0 mm 3 mps 760 mmHg 30%
16:00 +20°C° 0 mm 3 mps 760 mmHg 33%
17:00 +18°C° 0 mm 3 mps 760 mmHg 35%
18:00 +17°C° 0 mm 2 mps 760 mmHg 38%
19:00 +16°C° 0 mm 3 mps 760 mmHg 38%
20:00 +14°C° 0 mm 3 mps 760 mmHg 38%
21:00 +14°C° 0 mm 3 mps 760 mmHg 39%
22:00 +13°C° 0 mm 3 mps 761 mmHg 38%
23:00 +13°C° 0 mm 3 mps 761 mmHg 37%
Show more